World > North America > United States > California > Lucerne Valley  

Lucerne Valley, CA Hourly Weather Updates

Feedback E-mail the Weather

Quick Clicks

Lucerne Valley, CA Weather Maps

°F °C°F °C
Lucerne Valley Weather Map
UTC Time: 4/23/2024, 05:41
Your Time:

Lucerne Valley, CA Regional Weather

Expires:202404230600;;220979
ASUS46 KSGX 230510
RWRSGX

SAN DIEGO HOURLY WEATHER ROUNDUP
NATIONAL WEATHER SERVICE SAN DIEGO CA
1000 PM PDT MON APR 22 2024

NOTE: "FAIR" INDICATES FEW OR NO CLOUDS BELOW 12,000 FEET WITH NO 
SIGNIFICANT WEATHER AND/OR OBSTRUCTIONS TO VISIBILITY.


CAZ042-043-060-061-PZZ750-775-230600-

GREATER SAN DIEGO AREA
  
CITY           SKY/WX    TMP DP  RH WIND       PRES   REMARKS
SAN DIEGO AP   CLOUDY    60  53  77 S5        29.97R                  
BROWN FIELD    CLOUDY    58  54  86 S3        29.95R                  
MIRAMAR MCAS   CLOUDY    54  54 100 SW6       29.95R FOG              
MONTGOMERY FLD CLOUDY    58  53  84 SW6       29.95R                  
GILLESPIE FLD  CLOUDY    57  55  94 S5        29.95R                  
LEMON GROVE      N/A     56  54  91 SW1       29.94R                  

$$

NORTH SAN DIEGO COUNTY
  
CITY           SKY/WX    TMP DP  RH WIND       PRES   REMARKS
CAMP PENDLETON CLOUDY    59  55  87 SW3       29.96R FOG              
OCEANSIDE AP   CLOUDY    59  54  83 SW6       29.95R                  
OCEANSIDE HBR    N/A     59  54  84 S6        30.00R                  
VISTA            N/A     57  55  94 SW2       29.94R                  
CARLSBAD       CLOUDY    57  52  83 SW6       29.95R                  
ENCINITAS        N/A     57  55  91 CALM        N/A                   
LA JOLLA SCRIP   N/A     58  50  74 CALM      29.95R                  
FALLBROOK      CLOUDY    55  55 100 SW3       29.96R FOG              
ESCONDIDO        N/A     58  55  90 SW3       29.95R                  
SAN MARCOS       N/A     56  54  91 CALM      29.93R                  
RANCHO BERNARD   N/A     56  54  91 CALM      29.94R                  
POWAY            N/A     58  55  91 W2        29.97R                  

$$

EAST SAN DIEGO COUNTY
  
CITY           SKY/WX    TMP DP  RH WIND       PRES   REMARKS
RAMONA         CLOUDY    56  54  93 W5        29.95R FOG              
SANTEE           N/A     57  55  91 CALM      29.92R                  
LA MESA          N/A     56  54  91 CALM      29.89R                  
EL CAJON         N/A     57  56  96 CALM      29.83R                  
ALPINE           N/A     55  54  96 CALM      30.11R                  
DESCANSO N       N/A     50  46  85 N3        29.89R                  

$$

ORANGE COUNTY AND THE LOS ANGELES BASIN
  
CITY           SKY/WX    TMP DP  RH WIND       PRES   REMARKS
JOHN WAYNE AP  CLOUDY    61  51  70 E3        29.94R                  
LAGUNA BEACH     N/A     59  56  88 CALM      29.93R                  
LAKE FOREST FR   N/A     55  52  89 CALM      29.82R                  
SANTA ANA        N/A     59  56  91 CALM      29.92R                  
HUNTINGTON BCH   N/A     60  56  85 CALM      29.94R                  
LOS ALAMITOS   CLOUDY    60  55  83 S5        29.91R                  
FULLERTON      CLOUDY    60  58  92 SE6       29.93S                  
LONG BEACH     CLOUDY    62  53  72 S6        29.94R                  
L.A. AP        CLOUDY    58  55  90 NW5       29.94R                  
L.A. DOWNTOWN  CLOUDY    61  54  77 CALM      29.94R                  

$$

THE INLAND EMPIRE
  
CITY           SKY/WX    TMP DP  RH WIND       PRES   REMARKS
CORONA         CLOUDY    59  55  87 W6        29.95R                  
UPLAND AP      CLOUDY    57  57 100 W8        29.93S                  
CHINO          CLOUDY    59  32  36 W8        29.95R                  
ONTARIO        CLOUDY    59  51  75 W10       29.93R                  
SAN BERNARDINO CLOUDY    60  52  74 W8        29.94R                  
RIVERSIDE AP   CLOUDY    58  54  86 W12       29.94R                  
MORENO VALLEY    N/A     58  57  98 SW1       28.17R                  
MARCH ARB      CLOUDY    58  54  88 W3        29.94R                  
HORSETHIEF CYN   N/A     57  53  88 W3        29.91R                  
PERRIS           N/A     57  54  89 SE3       29.95R                  
LAKE ELSINORE    N/A     58  53  83 CALM      29.86R                  
HEMET AP       CLOUDY    55  54  94 SW8       29.94R                  
FRENCH VALLEY  CLOUDY    55  55 100 SW3       29.95R                  
TEMECULA         N/A     57  55  92 W3        29.92R                  

$$

SAN BERNARDINO AND RIVERSIDE COUNTY MOUNTAINS
  
CITY           SKY/WX    TMP DP  RH WIND       PRES   REMARKS
BIG BEAR AP    CLEAR     45  25  45 CALM      30.08S                  
BIG BEAR LAKE    N/A     46  27  47 CALM      29.86R                  
WRIGHTWOOD       N/A     59  22  24 SW6       29.62R                  
ANGELUS OAKS     N/A     51  37  59 CALM      29.72R                  
IDYLLWILD        N/A     50  32  50 CALM      29.74R                  

$$

SOUTHERN DESERT INCLUDING THE COACHELLA VALLEY
  
CITY           SKY/WX    TMP DP  RH WIND       PRES   REMARKS
PALM SPRINGS   CLEAR     79  51  37 NW15      29.75R                  
THOUSAND PALMS   N/A     76  55  47 NW6       29.67R                  
THERMAL        CLEAR     79  54  41 NW16      29.70R                  
BORREGO AP     CLEAR     79  39  24 N16G22    29.74R                  
OCOTILLO WELLS   N/A     84  35  17 NW8       29.67R                  
CANEBRAKE        N/A     76  40  27 SE3       29.67R                  
BLYTHE         CLEAR     84  32  15 S12       29.73R                  
IMPERIAL AP    CLEAR     78  42  27 MISG      29.72R                  
EL CENTRO NAS  CLEAR     80  43  26 SW9       29.73R                  
YUMA AZ        PTCLDY    77  36  22 SE6       29.74R                  

$$

UPPER DESERT
  
CITY           SKY/WX    TMP DP  RH WIND       PRES   REMARKS
VICTORVILLE AP CLEAR     64  46  52 S9        29.92R                  
HESPERIA         N/A     63  47  55 SW14      29.61R                  
APPLE VALLEY     N/A     65  49  55 CALM      29.81R                  
PALMDALE       CLEAR     63  42  46 SW10      29.89R                  
LANCASTER      CLEAR     60  51  72 SW15      29.88R                  
EDWARDS AFB    CLEAR     67  37  33 SW15      29.83R                  
GRAY BUTTE AP  CLEAR     59  43  53 CALM      29.85R                  
DAGGETT        CLEAR     74  37  26 NW23G31   29.81R                  
29 PALMS N     CLEAR     78  34  20 CALM      29.87R                  
29 PALMS JTNP    N/A     81  42  25 CALM      29.65R                  
NEEDLES        CLEAR     85  25  11 SW14      29.72R                  

$$

REGIONAL REPORTS
  
CITY           SKY/WX    TMP DP  RH WIND       PRES   REMARKS
SANTA BARBARA  CLOUDY    57  53  86 CALM      29.93R                  
SANDBERG       CLEAR     53  47  79 S7        29.97R                  
LAS VEGAS NV   CLEAR     81  22  11 S8        29.76R                  
PHOENIX AZ     MOCLDY    88  29  12 W15       29.75R                  
TIJUANA        CLOUDY    57  54  88 CALM      29.98                   
ENSENADA NW      N/A     58  32  37 W6        29.75R                  

$$

OFFSHORE ISLANDS
  
CITY           SKY/WX    TMP DP  RH WIND       PRES   REMARKS
CATALINA ARPT  CLOUDY    53  51  93 CALM      29.95S FOG              
SAN CLEMENTE I CLOUDY    60  32  34 NW9       29.96                   
SAN NICOLAS IS CLOUDY    53  47  79 NW9       29.95R                  

$$

MARINE AND OFFSHORE BUOY REPORTS
  
STATION/POSITION SKY/WX   TEMP    WIND        PRES    VSBY  SWELL
                          AIR SEA DIR/SP/G                  HT/PER/DIR
                          (F)     (DEG/KT/KT) (MB)    (MI)  (FT/S/D)
TANNER BANKS               57 59  300/ 12/ 16 1014.4R
S CLEMENTE BASIN           58 60  290/ 12/ 17 1013.2R
SAN NICOLAS IS.            57 59                N/A           5/220/15
SO. S. ROSA ISLA           56 57  300/ 14/ 17 1013.3R         7/300/13
W. S. BARBARA CH           56 56  320/ 10/ 14 1013.5R         7/310/13
M. S. BARBARA CH           56 56  270/ 10/ 14 1012.4R
S. MONICA BASIN            57 59  290/  8/ 10 1014.2R         3/210/15
S PEDRO CHANNEL               59                N/A           2/180/15
OCEANSIDE OFFSHR              62                N/A           2/180/15
TORREY PINES OTR              62                N/A           3/200/15
SAN DIEGO BAY                 64              1013.9
IMPERIAL BEACH                61                N/A           2/270/13
POINT LOMA SOUTH                                N/A           3/200/15

$$

  

SKY/WX - Weather  TMP - Temperature  DP - Dew Point  RH - Humidity
WIND - Wind Direction/Speed PRES - Barometric Pressure VSB - Visibility
WCI - Wind Chill Index E13G22 Wind - East Wind 13 mph/Gusts of 22 mph

Trending Headlines

Trending Entertainment Headlines

Lucerne Valley Radar Loop

Use the map search tool if you want to place a location marker on the radar map...

Lucerne Valley Quick Facts

National Two Day Weather Forecast


E-mail the Lucerne Valley Weather Forecast

Voice your opinion or tell us about page issues...